TimeMDT,TemperatureF,Dew PointF,Humidity,Sea Level PressureIn,VisibilityMPH,Wind Direction,Wind SpeedMPH,Gust SpeedMPH,PrecipitationIn,Events,Conditions,WindDirDegrees,DateUTC
12:52 AM,39.0,30.9,73,29.81,10.0,NNW,15.0,-,N/A,,Clear,340,2012-10-24 06:52:00
1:52 AM,39.9,28.9,65,29.81,10.0,North,19.6,-,N/A,,Clear,350,2012-10-24 07:52:00
2:52 AM,37.0,28.0,70,29.83,10.0,North,18.4,-,N/A,,Clear,360,2012-10-24 08:52:00
3:52 AM,35.1,28.0,76,29.84,10.0,North,15.0,-,N/A,,Clear,350,2012-10-24 09:52:00
4:52 AM,35.1,28.0,76,29.84,10.0,NNW,17.3,-,N/A,,Clear,340,2012-10-24 10:52:00
5:52 AM,34.0,28.0,79,29.86,10.0,North,17.3,-,N/A,,Clear,350,2012-10-24 11:52:00
6:52 AM,37.0,30.0,76,29.88,10.0,North,12.7,-,N/A,,Overcast,360,2012-10-24 12:52:00
7:35 AM,37.4,28.4,70,29.95,10.0,North,17.3,-,N/A,,Overcast,10,2012-10-24 13:35:00
7:46 AM,37.4,30.2,75,29.95,10.0,North,13.8,-,N/A,,Overcast,10,2012-10-24 13:46:00
7:52 AM,37.0,30.0,76,29.89,10.0,North,15.0,-,N/A,,Overcast,360,2012-10-24 13:52:00
8:52 AM,37.0,28.0,70,29.91,10.0,North,17.3,-,N/A,,Overcast,10,2012-10-24 14:52:00
9:52 AM,37.9,28.9,70,29.94,10.0,North,17.3,-,N/A,,Overcast,10,2012-10-24 15:52:00
10:52 AM,39.0,30.0,70,29.96,10.0,North,15.0,-,N/A,,Overcast,360,2012-10-24 16:52:00
11:07 AM,39.2,30.2,70,30.00,10.0,NNE,13.8,-,N/A,,Overcast,20,2012-10-24 17:07:00
11:52 AM,39.9,30.0,68,29.98,10.0,North,12.7,-,N/A,,Overcast,360,2012-10-24 17:52:00
12:52 PM,42.1,30.9,65,29.99,10.0,Variable,6.9,-,0.00,,Overcast,0,2012-10-24 18:52:00
1:52 PM,44.1,30.0,58,29.96,10.0,Calm,Calm,-,N/A,,Mostly Cloudy,0,2012-10-24 19:52:00
2:52 PM,45.0,30.0,56,29.96,10.0,NE,4.6,-,N/A,,Scattered Clouds,50,2012-10-24 20:52:00
3:52 PM,45.0,28.9,53,29.98,10.0,NNE,6.9,-,N/A,,Overcast,20,2012-10-24 21:52:00
4:52 PM,45.0,28.9,53,30.01,10.0,North,5.8,-,0.00,Rain,Light Rain,360,2012-10-24 22:52:00
5:52 PM,41.0,35.1,79,30.04,10.0,SSW,5.8,-,0.00,,Overcast,210,2012-10-24 23:52:00
6:00 PM,-9999,-9999,N/A,-9999,-9999.0,North,-9999.0,-,N/A,,Unknown,0,2012-10-25 00:00:00
6:22 PM,42.8,35.6,76,30.04,10.0,East,5.8,-,0.01,Rain,Light Rain,90,2012-10-25 00:22:00
6:34 PM,39.2,35.6,87,30.04,10.0,East,8.1,-,0.01,,Mostly Cloudy,80,2012-10-25 00:34:00
6:52 PM,37.9,34.0,86,30.04,10.0,ENE,5.8,-,0.01,,Clear,70,2012-10-25 00:52:00
7:52 PM,37.0,32.0,82,30.07,10.0,Calm,Calm,-,N/A,,Clear,0,2012-10-25 01:52:00
8:52 PM,32.0,30.0,92,30.09,10.0,WNW,5.8,-,N/A,,Clear,290,2012-10-25 02:52:00
9:52 PM,32.0,28.9,88,30.11,10.0,Calm,Calm,-,N/A,,Clear,0,2012-10-25 03:52:00
10:52 PM,28.9,27.0,92,30.12,10.0,WSW,5.8,-,N/A,,Clear,250,2012-10-25 04:52:00
11:52 PM,28.9,27.0,92,30.13,10.0,West,5.8,-,N/A,,Clear,260,2012-10-25 05:52:00